FDX396 KMEM-KIAH

Flight info

Callsign FDX396
Flight time N/A
Altitude 40000
Route UJM329021 DHART Q33 SWEUP GESNR2 KIAH
Aircraft MD11/H-SDE1E2E3FGHIJ2J3J4J5M1RWXY/LB1D1

Departure

Time N/A
Airport Memphis International Airport (KMEM)

Arrival

Time 2026-05-04 02:37
Airport George Bush Intercontinental Airport (KIAH)
Time Latitude Longitude Altitude Speed Heading
2026-05-04 01:47 33.28765 -92.44320 40042 ft 494 kts 193°
2026-05-04 01:47 33.21973 -92.45232 40080 ft 491 kts 197°
2026-05-04 01:48 33.15192 -92.46373 40080 ft 489 kts 198°
2026-05-04 01:48 33.08462 -92.47610 40077 ft 490 kts 199°
2026-05-04 01:49 33.01721 -92.48859 40084 ft 490 kts 199°
2026-05-04 01:49 32.94981 -92.50098 40086 ft 490 kts 198°
2026-05-04 01:50 32.88259 -92.51326 40089 ft 490 kts 198°
2026-05-04 01:50 32.81505 -92.52558 40086 ft 491 kts 199°
2026-05-04 01:51 32.74744 -92.53789 40092 ft 491 kts 199°
2026-05-04 01:51 32.67978 -92.55019 40093 ft 491 kts 199°
2026-05-04 01:52 32.61251 -92.56239 40090 ft 491 kts 199°
2026-05-04 01:52 32.54469 -92.57469 40086 ft 493 kts 199°
2026-05-04 01:53 32.47687 -92.58699 40097 ft 493 kts 199°
2026-05-04 01:53 32.40899 -92.59929 40098 ft 493 kts 199°
2026-05-04 01:54 32.34118 -92.61155 40104 ft 493 kts 199°
2026-05-04 01:54 32.27379 -92.62371 40094 ft 493 kts 199°
2026-05-04 01:55 32.20593 -92.63595 40101 ft 493 kts 199°
2026-05-04 01:55 32.13811 -92.64816 40109 ft 493 kts 199°
2026-05-04 01:56 32.07018 -92.66037 40104 ft 493 kts 199°
2026-05-04 01:56 32.00327 -92.67516 40085 ft 480 kts 208°
2026-05-04 01:57 31.97253 -92.68884 40102 ft 464 kts 218°
2026-05-04 01:57 31.94544 -92.70800 40105 ft 446 kts 229°
2026-05-04 01:57 31.92257 -92.73171 40115 ft 432 kts 237°
2026-05-04 01:57 31.90269 -92.75732 40110 ft 427 kts 240°
2026-05-04 01:58 31.86429 -92.81065 40110 ft 427 kts 240°
2026-05-04 01:58 31.82530 -92.86347 39919 ft 429 kts 239°
2026-05-04 01:59 31.80543 -92.88970 39690 ft 429 kts 239°
2026-05-04 01:59 31.78542 -92.91588 39451 ft 430 kts 239°
2026-05-04 01:59 31.76563 -92.94164 39223 ft 431 kts 239°
2026-05-04 01:59 31.74547 -92.96783 38863 ft 432 kts 239°
2026-05-04 02:00 31.72531 -92.99400 38461 ft 432 kts 239°
2026-05-04 02:00 31.70510 -93.02023 38052 ft 433 kts 239°
2026-05-04 02:00 31.68484 -93.04651 37637 ft 435 kts 239°
2026-05-04 02:00 31.66455 -93.07282 37182 ft 435 kts 239°
2026-05-04 02:01 31.64419 -93.09917 36714 ft 435 kts 239°
2026-05-04 02:01 31.62379 -93.12559 36224 ft 437 kts 239°
2026-05-04 02:01 31.60336 -93.15201 35741 ft 438 kts 239°
2026-05-04 02:01 31.58286 -93.17851 35246 ft 439 kts 239°
2026-05-04 02:02 31.56228 -93.20511 34771 ft 440 kts 239°
2026-05-04 02:02 31.54181 -93.23154 34300 ft 442 kts 238°
2026-05-04 02:02 31.52111 -93.25825 33781 ft 443 kts 238°
2026-05-04 02:02 31.50146 -93.28359 33294 ft 445 kts 238°
2026-05-04 02:03 31.48056 -93.31053 32775 ft 448 kts 238°
2026-05-04 02:03 31.45956 -93.33756 32231 ft 450 kts 238°
2026-05-04 02:03 31.43846 -93.36470 31726 ft 452 kts 238°
2026-05-04 02:03 31.41719 -93.39205 31229 ft 455 kts 238°
2026-05-04 02:04 31.39577 -93.41958 30761 ft 458 kts 237°
2026-05-04 02:04 31.37452 -93.44685 30279 ft 460 kts 237°
2026-05-04 02:04 31.35290 -93.47445 29745 ft 459 kts 237°
2026-05-04 02:04 31.33133 -93.50186 29184 ft 456 kts 236°
2026-05-04 02:05 31.30998 -93.52900 28645 ft 453 kts 236°
2026-05-04 02:05 31.28894 -93.55617 28124 ft 450 kts 236°
2026-05-04 02:05 31.26809 -93.58329 27606 ft 447 kts 236°
2026-05-04 02:05 31.24728 -93.61023 27100 ft 445 kts 236°
2026-05-04 02:06 31.22650 -93.63694 26600 ft 443 kts 235°
2026-05-04 02:06 31.20578 -93.66341 26107 ft 440 kts 235°
2026-05-04 02:06 31.18511 -93.68969 25604 ft 438 kts 235°
2026-05-04 02:06 31.16453 -93.71580 25256 ft 436 kts 234°
2026-05-04 02:07 31.14403 -93.74177 24918 ft 434 kts 234°
2026-05-04 02:07 31.12361 -93.76764 24568 ft 433 kts 234°
2026-05-04 02:07 31.10322 -93.79344 24271 ft 431 kts 234°
2026-05-04 02:07 31.08295 -93.81907 24150 ft 429 kts 233°
2026-05-04 02:08 31.06298 -93.84430 24124 ft 428 kts 233°
2026-05-04 02:08 31.04277 -93.86983 24118 ft 428 kts 233°
2026-05-04 02:08 31.02259 -93.89531 24116 ft 428 kts 233°
2026-05-04 02:08 31.00238 -93.92081 24116 ft 428 kts 233°
2026-05-04 02:09 30.98218 -93.94626 24117 ft 428 kts 233°
2026-05-04 02:09 30.96188 -93.97174 24067 ft 429 kts 233°
2026-05-04 02:09 30.94162 -93.99713 23591 ft 427 kts 233°
2026-05-04 02:09 30.92147 -94.02235 23198 ft 425 kts 233°
2026-05-04 02:10 30.90137 -94.04753 22809 ft 423 kts 233°
2026-05-04 02:10 30.88142 -94.07253 22402 ft 421 kts 233°
2026-05-04 02:10 30.86824 -94.08906 22246 ft 419 kts 232°
2026-05-04 02:10 30.85314 -94.10799 22158 ft 418 kts 232°
2026-05-04 02:11 30.83335 -94.13281 22123 ft 418 kts 232°
2026-05-04 02:11 30.81359 -94.15758 22120 ft 417 kts 232°
2026-05-04 02:11 30.79440 -94.18148 22119 ft 389 kts 233°
2026-05-04 02:11 30.77615 -94.20419 22103 ft 380 kts 233°
2026-05-04 02:12 30.75821 -94.22665 22115 ft 378 kts 233°
2026-05-04 02:12 30.74030 -94.24918 21682 ft 376 kts 233°
2026-05-04 02:12 30.72260 -94.27146 21179 ft 375 kts 233°
2026-05-04 02:12 30.70497 -94.29364 20688 ft 373 kts 232°
2026-05-04 02:13 30.68739 -94.31574 20200 ft 371 kts 232°
2026-05-04 02:13 30.66989 -94.33774 19723 ft 370 kts 232°
2026-05-04 02:13 30.65265 -94.35938 19270 ft 369 kts 232°
2026-05-04 02:13 30.63527 -94.38118 18795 ft 367 kts 231°
2026-05-04 02:14 30.61796 -94.40288 18400 ft 366 kts 231°
2026-05-04 02:14 30.60066 -94.42456 18015 ft 365 kts 231°
2026-05-04 02:14 30.58344 -94.44612 17630 ft 363 kts 231°
2026-05-04 02:14 30.56635 -94.46750 17248 ft 361 kts 230°
2026-05-04 02:15 30.54933 -94.48878 17042 ft 359 kts 230°
2026-05-04 02:15 30.53244 -94.51000 16987 ft 358 kts 231°
2026-05-04 02:15 30.51632 -94.53195 16913 ft 358 kts 234°
2026-05-04 02:15 30.50081 -94.55440 16399 ft 354 kts 234°
2026-05-04 02:16 30.48568 -94.57686 15903 ft 352 kts 235°
2026-05-04 02:16 30.47071 -94.59918 15417 ft 348 kts 234°
2026-05-04 02:16 30.45607 -94.62101 14935 ft 346 kts 234°
2026-05-04 02:16 30.44134 -94.64293 14473 ft 343 kts 234°
2026-05-04 02:17 30.42671 -94.66464 14106 ft 341 kts 233°
2026-05-04 02:17 30.41200 -94.68588 13732 ft 340 kts 231°
2026-05-04 02:17 30.39674 -94.70670 13237 ft 338 kts 230°
2026-05-04 02:17 30.38134 -94.72724 12724 ft 336 kts 230°
2026-05-04 02:18 30.36598 -94.74761 12219 ft 334 kts 230°
2026-05-04 02:18 30.35070 -94.76784 11725 ft 332 kts 230°
2026-05-04 02:18 30.33553 -94.78795 11290 ft 329 kts 230°
2026-05-04 02:18 30.32050 -94.80788 10949 ft 327 kts 229°
2026-05-04 02:19 30.30586 -94.82731 10597 ft 314 kts 229°
2026-05-04 02:19 30.29182 -94.84601 10263 ft 301 kts 229°
2026-05-04 02:19 30.27856 -94.86405 10083 ft 293 kts 229°
2026-05-04 02:19 30.26547 -94.88209 9577 ft 291 kts 229°
2026-05-04 02:20 30.25273 -94.89972 9163 ft 282 kts 230°
2026-05-04 02:20 30.24020 -94.91706 8805 ft 280 kts 230°
2026-05-04 02:20 30.22776 -94.93430 8448 ft 279 kts 230°
2026-05-04 02:20 30.21550 -94.95127 8128 ft 277 kts 230°
2026-05-04 02:21 30.20315 -94.96839 8014 ft 276 kts 230°
2026-05-04 02:21 30.19086 -94.98540 7991 ft 276 kts 230°
2026-05-04 02:21 30.17856 -95.00242 7985 ft 276 kts 230°
2026-05-04 02:21 30.16628 -95.01940 7989 ft 275 kts 230°
2026-05-04 02:22 30.15400 -95.03640 7987 ft 275 kts 230°
2026-05-04 02:22 30.14167 -95.05344 7988 ft 276 kts 230°
2026-05-04 02:22 30.12930 -95.07038 7986 ft 274 kts 229°
2026-05-04 02:22 30.11674 -95.08673 7853 ft 273 kts 228°
2026-05-04 02:23 30.10409 -95.10286 7494 ft 269 kts 228°
2026-05-04 02:23 30.09164 -95.11867 7164 ft 268 kts 228°
2026-05-04 02:23 30.07911 -95.13456 7027 ft 268 kts 228°
2026-05-04 02:23 30.06656 -95.15048 6996 ft 268 kts 228°
2026-05-04 02:24 30.05403 -95.16642 6991 ft 268 kts 228°
2026-05-04 02:24 30.04150 -95.18239 6991 ft 268 kts 228°
2026-05-04 02:24 30.02899 -95.19835 6988 ft 268 kts 228°
2026-05-04 02:24 30.01647 -95.21431 6990 ft 268 kts 228°
2026-05-04 02:25 30.00390 -95.23033 6989 ft 268 kts 228°
2026-05-04 02:25 29.99140 -95.24627 6988 ft 267 kts 228°
2026-05-04 02:25 29.97892 -95.26217 6987 ft 267 kts 228°
2026-05-04 02:25 29.96641 -95.27811 6987 ft 268 kts 228°
2026-05-04 02:26 29.95391 -95.29403 6847 ft 267 kts 228°
2026-05-04 02:26 29.94159 -95.30974 6683 ft 267 kts 229°
2026-05-04 02:26 29.92913 -95.32566 6472 ft 267 kts 228°
2026-05-04 02:26 29.91676 -95.34146 6232 ft 264 kts 230°
2026-05-04 02:27 29.90467 -95.35704 6031 ft 258 kts 231°
2026-05-04 02:27 29.89531 -95.37459 5983 ft 257 kts 251°
2026-05-04 02:27 29.89233 -95.39416 5984 ft 238 kts 267°
2026-05-04 02:27 29.89196 -95.41280 5826 ft 232 kts 270°
2026-05-04 02:28 29.89200 -95.43118 5478 ft 227 kts 270°
2026-05-04 02:28 29.89213 -95.44930 5131 ft 225 kts 270°
2026-05-04 02:28 29.89231 -95.46735 4784 ft 225 kts 270°
2026-05-04 02:28 29.89254 -95.48540 4426 ft 225 kts 270°
2026-05-04 02:29 29.89286 -95.50340 4076 ft 224 kts 270°
2026-05-04 02:29 29.89327 -95.52133 3729 ft 224 kts 270°
2026-05-04 02:29 29.89377 -95.53928 3383 ft 223 kts 271°
2026-05-04 02:29 29.89430 -95.55712 3077 ft 221 kts 271°
2026-05-04 02:30 29.89663 -95.57460 2987 ft 224 kts 291°
2026-05-04 02:30 29.90613 -95.58871 2985 ft 227 kts 323°
2026-05-04 02:30 29.92083 -95.59512 2988 ft 229 kts 354°
2026-05-04 02:30 29.93673 -95.59539 2999 ft 228 kts
2026-05-04 02:31 29.95256 -95.59500 2991 ft 228 kts
2026-05-04 02:31 29.96831 -95.59467 2981 ft 219 kts
2026-05-04 02:31 29.98318 -95.59429 2977 ft 210 kts
2026-05-04 02:31 29.99763 -95.59361 2976 ft 207 kts 10°
2026-05-04 02:32 30.01044 -95.58668 2949 ft 205 kts 44°
2026-05-04 02:32 30.01766 -95.57320 2764 ft 202 kts 78°
2026-05-04 02:32 30.01772 -95.55748 2530 ft 196 kts 101°
2026-05-04 02:32 30.01557 -95.54193 2299 ft 196 kts 102°
2026-05-04 02:33 30.01331 -95.52649 2059 ft 193 kts 105°
2026-05-04 02:33 30.01030 -95.51145 1994 ft 192 kts 107°
2026-05-04 02:33 30.00723 -95.49661 1983 ft 186 kts 107°
2026-05-04 02:33 30.00435 -95.48257 1972 ft 174 kts 107°
2026-05-04 02:34 30.00174 -95.46945 1978 ft 163 kts 107°
2026-05-04 02:34 29.99931 -95.45692 1984 ft 160 kts 106°
2026-05-04 02:34 29.99679 -95.44447 1981 ft 158 kts 105°
2026-05-04 02:34 29.99626 -95.43148 1837 ft 166 kts 92°
2026-05-04 02:35 29.99520 -95.41812 1535 ft 169 kts 103°
2026-05-04 02:35 29.99373 -95.40436 1263 ft 175 kts 99°
2026-05-04 02:35 29.99329 -95.39064 968 ft 165 kts 94°
2026-05-04 02:35 29.99345 -95.37833 802 ft 145 kts 92°
2026-05-04 02:36 29.99370 -95.36699 472 ft 138 kts 94°
2026-05-04 02:36 29.99342 -95.35610 204 ft 136 kts 92°
2026-05-04 02:36 29.99342 -95.34556 114 ft 113 kts 90°
2026-05-04 02:36 29.99342 -95.33932 112 ft 52 kts 89°
2026-05-04 02:37 29.99341 -95.33601 116 ft 27 kts 91°
2026-05-04 02:37 29.99333 -95.33405 112 ft 22 kts 98°
2026-05-04 02:37 29.99291 -95.33257 113 ft 16 kts 115°
2026-05-04 02:37 29.99260 -95.33187 113 ft 0 kts 119°
2026-05-04 02:38 29.99256 -95.33180 113 ft 5 kts 119°
2026-05-04 02:38 29.99251 -95.33169 112 ft 0 kts 119°
2026-05-04 02:39 29.99231 -95.33128 112 ft 12 kts 120°
2026-05-04 02:39 29.99182 -95.33026 113 ft 15 kts 110°
2026-05-04 02:40 29.99178 -95.32914 114 ft 15 kts 89°
2026-05-04 02:40 29.99179 -95.32794 113 ft 15 kts 89°
2026-05-04 02:40 29.99180 -95.32674 113 ft 15 kts 90°
2026-05-04 02:40 29.99167 -95.32569 112 ft 9 kts 123°
2026-05-04 02:41 29.99128 -95.32542 111 ft 6 kts 151°
2026-05-04 02:41 29.99092 -95.32493 111 ft 11 kts 115°
2026-05-04 02:41 29.99081 -95.32384 113 ft 14 kts 89°
2026-05-04 02:41 29.99079 -95.32271 115 ft 14 kts 91°
2026-05-04 02:42 29.99077 -95.32155 115 ft 14 kts 91°
2026-05-04 02:42 29.99079 -95.32040 115 ft 14 kts 89°
2026-05-04 02:42 29.99079 -95.31904 115 ft 20 kts 89°
2026-05-04 02:42 29.99081 -95.31747 112 ft 20 kts 89°
2026-05-04 02:43 29.99082 -95.31589 112 ft 19 kts 90°
2026-05-04 02:43 29.99082 -95.31436 112 ft 19 kts 89°
2026-05-04 02:43 29.99091 -95.31322 112 ft 8 kts 66°
2026-05-04 02:43 29.99113 -95.31303 114 ft 7 kts 22°
2026-05-04 02:44 29.99196 -95.31294 113 ft 13 kts
2026-05-04 02:44 29.99285 -95.31293 113 ft 13 kts 360°
2026-05-04 02:44 29.99353 -95.31261 111 ft 9 kts 49°
2026-05-04 02:44 29.99369 -95.31204 113 ft 7 kts 84°
2026-05-04 02:45 29.99369 -95.31155 112 ft 6 kts 90°
2026-05-04 02:45 29.99359 -95.31120 112 ft 3 kts 120°
2026-05-04 02:45 29.99347 -95.31107 114 ft 2 kts 142°
2026-05-04 02:45 29.99332 -95.31103 114 ft 1 kts 171°
2026-05-04 02:46 29.99317 -95.31104 113 ft 6 kts 180°
2026-05-04 02:46 29.99289 -95.31104 114 ft 0 kts 180°